NOAA 19 (33591 NORAD) Tracking and Keplerian Element Data

This shows tracking and keplerian element data for the satellite.

Feedback or suggestion? Click here.




ElementValue
Catalog33591
NameNOAA 19
Epoch Orbit60270
Epoch Day293.91470714
Epoch Year2020
RAAN302.5073
Inclination99.1966
Eccentricity0.0014944
Argument of Perigee87.4474
Mean Anonmoly272.8407
Mean Motion14.12435482
Decay Rate-8E-08
L11 33591U 09005A 20293.91470714 -.00000008 00000-0 20995-4 0 9992
L22 33591 99.1966 302.5073 0014944 87.4474 272.8407 14.12435482602708

Live tracking and technical data element details for NOAA 19 (NORAD 33591). NOAA 19 can be tracked NOW for your location showing map with azimuth and elevation plus other details from your city location.

Track the satellite on the map from your city or location and see movement details for azimuth, elevation, latitude, longitude, range, height, and movement on the map or in text.







IsCatalogInMostPopularTable: catalog: 33591, numindb: 1044
Update: records affected: 1



GetName: 33591 NOAA 19

Hit Count: updated at: Tue, 20 Oct 2020 17:37:13 GMT